This is the latest recevied weather packets stored in our database for station/object KE1THD. If no packets are shown the sender has not sent any weather packets the latest 10 day(s).
| Time | Temp. | Humidity | Pressure | Rain* | Wind** | Luminosity | Snow |
|---|---|---|---|---|---|---|---|
| 1778083141 | 11.11° C | 39% | 1016.2 hPa | 0 mm | - | 737 W/m² | - |
| 1778082837 | 10.56° C | 39% | 1016.3 hPa | 0 mm | - | 541 W/m² | - |
| 1778081714 | 10.56° C | 38% | 1016.3 hPa | 0 mm | - | 736 W/m² | - |
| 1778081412 | 10.56° C | 38% | 1016.1 hPa | 0 mm | - | 737 W/m² | - |
| 1778081108 | 10.56° C | 38% | 1016.2 hPa | 0 mm | - | 665 W/m² | - |
| 1778080807 | 10° C | 41% | 1016 hPa | 0 mm | - | 606 W/m² | - |
| 1778080504 | 10° C | 42% | 1016.2 hPa | 0 mm | - | 642 W/m² | - |
| 1778080201 | 10° C | 39% | 1016.3 hPa | 0 mm | - | 413 W/m² | - |
| 1778079897 | 10° C | 40% | 1016.1 hPa | 0 mm | - | 219 W/m² | - |
| 1778079594 | 10° C | 40% | 1016.2 hPa | 0 mm | - | 636 W/m² | - |
| 1778079290 | 9.44° C | 42% | 1016.3 hPa | 0 mm | - | 605 W/m² | - |
| 1778078988 | 9.44° C | 41% | 1016.3 hPa | 0 mm | - | 344 W/m² | - |
| 1778078684 | 9.44° C | 42% | 1016 hPa | 0 mm | - | 405 W/m² | - |
| 1778078383 | 9.44° C | 41% | 1016.1 hPa | 0 mm | - | 252 W/m² | - |
| 1778078080 | 9.44° C | 42% | 1016.1 hPa | 0 mm | - | 404 W/m² | - |
| 1778077778 | 8.89° C | 44% | 1016 hPa | 0 mm | - | 672 W/m² | - |
| 1778077475 | 8.89° C | 44% | 1016.1 hPa | 0 mm | - | 567 W/m² | - |
| 1778077173 | 8.33° C | 44% | 1016 hPa | 0 mm | - | 201 W/m² | - |
| 1778076871 | 8.89° C | 45% | 1015.9 hPa | 0 mm | - | 188 W/m² | - |
| 1778076570 | 8.33° C | 46% | 1015.9 hPa | 0 mm | - | 210 W/m² | - |
| 1778076266 | 8.33° C | 49% | 1016 hPa | 0 mm | - | 212 W/m² | - |
| 1778075963 | 8.33° C | 50% | 1015.9 hPa | 0 mm | - | 204 W/m² | - |
| 1778075660 | 8.33° C | 49% | 1015.9 hPa | 0 mm | - | 193 W/m² | - |
| 1778075356 | 7.78° C | 49% | 1016 hPa | 0 mm | - | 198 W/m² | - |
| 1778075052 | 7.78° C | 50% | 1015.8 hPa | 0 mm | - | 205 W/m² | - |
* Rain latest hour (hover to see other rain measurements)
** Current wind speed in m/s (hover to see current wind gust speed)